Regional Weather Roundup
Issued by NWS Bismarck, ND

Home | Current Version | Previous Version | Text Only | Print | Product List | Glossary On
Versions: 1 2 3 4 5 6 7 8 9 10 11 12 13 14 15 16 17 18 19 20 21 22 23 24 25 26 27 28 29 30 31 32 33 34 35 36 37 38 39 40 41 42 43 44 45 46 47 48 49 50
000
ASUS43 KBIS 281210
RWRBIS

NWR BROADCAST TEXT
NATIONAL WEATHER SERVICE BISMARCK ND
700 AM CDT FRI APR 28 2017

NOTE: "FAIR" INDICATES FEW OR NO CLOUDS BELOW 12,000 FEET WITH NO
SIGNIFICANT WEATHER AND/OR OBSTRUCTIONS TO VISIBILITY.


CITY           SKY/WX    TMP DP  RH WIND       PRES   REMARKS
WILLISTON      FAIR      27  21  78 N5        29.97R
MINOT          FAIR      25  21  85 SW6       29.97R WCI  18
MINOT AFB      FAIR      19  17  92 NW6       29.96R WCI  11
BISMARCK       FAIR      26  24  92 CALM      29.96R
DICKINSON      FAIR      25  19  78 E6        29.91R WCI  18
GARRISON         N/A     22  20  92 N8        29.96R WCI  12
HETTINGER ARPT FAIR      26  22  84 NE9       29.91R WCI  17
JAMESTOWN      FAIR      27  25  92 N6        29.92R
HAZEN          FAIR      16  14  93 CALM      29.98R
LINTON           N/A     21  21 100 CALM      29.95R
MANDAN         FAIR      27  23  86 N5        29.95R
STANLEY        FAIR      25  25 100 CALM      29.98R
TIOGA          FAIR      21  21 100 W5        29.98R WCI  15
WATFORD CITY   FAIR      23  19  86 CALM      29.96R
$$

CITY           SKY/WX    TMP DP  RH WIND       PRES   REMARKS
GRAND FORKS    FAIR      31  28  89 NW8       29.92R
GRAND FORKS AF FAIR      31  25  78 NW6       29.93R
DEVILS LAKE    FAIR      27  22  81 NW7       29.94S WCI  19
FARGO          FAIR      27  25  92 NW6       29.92R
CAVALIER       FAIR      30  21  69 NW8       29.92R
GRAFTON        FAIR      30  27  86 W9        29.94R
GWINNER        SUNNY     32  30  93 MISG      29.91S
LANGDON        FAIR      23  19  86 NW8       29.92R WCI  14
ROLLA          FAIR      25  16  68 NW8       29.95R WCI  16
$$

CITY           SKY/WX    TMP DP  RH WIND       PRES   REMARKS
ABERDEEN       FAIR      28  23  81 N5        29.93R
MOBRIDGE       FAIR      32  25  75 E12       29.89R
BUFFALO          N/A     31  25  78 NE9       29.80R
RAPID CITY     CLOUDY    35  30  82 N9        29.81R
GLASGOW        CLOUDY    40  17  39 E12       29.92R
SIDNEY         FAIR      28  21  75 CALM      29.96R
WOLF POINT     CLOUDY    29  19  66 E6        29.95R
GLENDIVE       FAIR      28  21  75 NE6       29.93R
MILES CITY     MOCLDY    34  25  69 NE12      29.88R
BAKER          FAIR      25  20  81 SE5       29.89R WCI  19
$$

CITY           SKY/WX    TMP DP  RH WIND       PRES   REMARKS
BILLINGS       LGT RAIN  38  36  92 N13       29.85R
GREAT FALLS    CLOUDY    36  33  89 SW5       29.93R
REGINA         PTCLDY    28  21  74 SE9       29.97R WCI  20
ESTEVAN        PTCLDY    28  27  93 CALM      29.98R
$$





USA.gov is the U.S. government's official web portal to all federal, state and local government web resources and services.